Tracking 18984 objects as of 24-Feb-2018
HD Live streaming from Space Station
objects crossing your sky now

FENGYUN 1C DEB

Track FENGYUN 1C DEB now!
10-day predictions


NORAD ID: 30920
Int'l Code: 1999-025AZJ
Perigee: 822.8 km
Apogee: 1,046.8 km
Inclination: 98.9 °
Period: 103.6 minutes
Semi major axis: 7305 km
RCS: 0.0084 m2 (small)
Launch date: May 10, 1999
Source: People's Republic of China (PRC)
Launch site: Taiyaun Space Center, China (TSC)

Note: This is SATELLITE DEBRIS
aabbcc
Your satellite tracking list
Your tracking list is empty




NASA's NSSDC Master Catalog

Two Line Element Set (TLE):
1 30920U 99025AZJ 18054.49338455  .00001070  00000-0  81607-3 0  9991
2 30920  98.8631 247.5315 0153291  33.1814  19.8671 13.90274684553468
Source of the keplerian elements: AFSPC